{"data":{"norad_id":57412,"intl_designator":"2023-102J","name":"STARLINK-30182","alt_names":[],"object_type":"PAYLOAD","status":"ACTIVE","operator":null,"country":"US","launch_date":"2023-07-20","launch_site_code":"AFWTR","launch_vehicle":null,"mission":null,"orbit_class":"UNKNOWN","rcs_meters":null,"size_class":null,"mass_kg":null,"dimensions":null,"purposes":["comms"],"wikipedia_slug":null,"has_3d_model":false,"image_url":null,"decayed_at":null,"tle_current":{"epoch":"2026-09-20T21:28:09.740352Z","epoch_age_seconds":93530,"freshness":"FRESH","line1":"1 57412U 23102J   26263.89455718  .00209120  00000+0  87271-3 0  9994","line2":"2 57412  42.9988 215.7054 0001735 256.7469 103.3210 15.84295075176213","mean_motion":15.84295075,"eccentricity":0.0001735,"inclination_deg":42.9988,"raan_deg":215.7054,"arg_perigee_deg":256.7469,"mean_anomaly_deg":103.321,"bstar":0.00087271,"rev_number":17621,"period_min":90.892159088483,"perigee_km":317.14853634885,"apogee_km":319.47220358623,"semimajor_km":6696.4473699675,"source":"CELESTRAK","updated_at":"2026-09-21T09:00:33.624280Z"}}}